FW8293 Weather Reports


Display with metric or nautical units.
time (UTC)temp
F
wind
direction
speed
MPH
gust
MPH
rain 1hr
in
rain 24hr
in
rain mn
in
humidity
%
barometer
mb
20260505061556 46 0 0.0 0.0 0.00 0.00 0.00 94 1015.0
20260505060030 46 0 0.0 1.0 0.00 0.00 0.00 93 1015.2
20260505054530 46 0 0.0 0.0 0.00 0.00 0.00 93 1015.2
20260505053038 47 0 0.0 0.0 0.00 0.00 0.00 93 1015.2
20260505051552 47 0 0.0 0.0 0.00 0.00 0.00 92 1015.2
20260505041531 49 0 0.0 0.0 0.00 0.00 0.00 89 1015.2
20260505040033 50 0 0.0 0.0 0.00 0.00 0.00 89 1015.2
20260505034530 50 0 0.0 0.0 0.00 0.00 0.00 88 1015.2
20260505033030 50 0 0.0 0.0 0.00 0.00 0.00 87 1015.5
20260505031530 51 0 0.0 0.0 0.00 0.00 0.00 86 1015.6
20260505030031 52 0 0.0 0.0 0.00 0.00 0.00 85 1015.5
20260505024529 52 0 0.0 0.0 0.00 0.00 0.00 84 1015.5
20260505023031 53 13 0.0 1.0 0.00 0.00 0.00 82 1015.5
20260505021530 54 0 0.0 0.0 0.00 0.00 0.00 81 1015.3
20260505020030 55 0 0.0 0.0 0.00 0.00 0.00 80 1015.2
20260505014530 56 0 0.0 0.0 0.00 0.00 0.00 78 1015.1
20260505013029 57 0 0.0 2.0 0.00 0.00 0.00 76 1014.9
20260505011532 58 0 0.0 1.0 0.00 0.00 0.00 74 1014.7
20260505010030 59 0 0.0 1.0 0.00 0.00 0.00 72 1014.7
20260505004534 61 0 0.0 0.0 0.00 0.00 0.00 68 1014.5
20260505003032 63 0 0.0 0.0 0.00 0.00 0.00 66 1014.3
20260505001532 65 0 0.0 0.0 0.00 0.00 0.00 63 1014.1
20260505000030 67 0 0.0 3.0 0.00 0.00 0.00 59 1014.1
20260504234532 68 0 0.0 4.0 0.00 0.00 0.00 56 1013.8
20260504233030 68 0 0.0 3.0 0.00 0.00 0.00 53 1013.7
20260504231530 69 302 1.0 3.0 0.00 0.00 0.00 47 1013.6
20260504230030 71 338 0.0 2.0 0.00 0.00 0.00 45 1013.6
20260504224532 72 20 1.0 3.0 0.00 0.00 0.00 41 1013.7
20260504223029 72 108 1.0 6.0 0.00 0.00 0.00 40 1013.8
20260504221530 72 135 2.0 7.0 0.00 0.00 0.00 39 1013.8
20260504220035 72 184 2.0 8.0 0.00 0.00 0.00 37 1013.9
20260504214530 72 141 7.0 14.0 0.00 0.00 0.00 37 1013.8
20260504213032 73 264 6.0 16.0 0.00 0.00 0.00 36 1013.9
20260504211529 74 275 6.0 13.0 0.00 0.00 0.00 37 1013.7
20260504210032 74 207 3.0 10.0 0.00 0.00 0.00 37 1013.6
20260504204530 75 212 5.0 11.0 0.00 0.00 0.00 37 1013.5
20260504203049 75 131 6.0 15.0 0.00 0.00 0.00 36 1013.6
20260504201532 76 149 5.0 15.0 0.00 0.00 0.00 35 1013.9
20260504200030 76 99 6.0 18.0 0.00 0.00 0.00 37 1013.9
20260504194533 76 221 5.0 14.0 0.00 0.00 0.00 36 1014.1
20260504193028 76 200 6.0 13.0 0.00 0.00 0.00 39 1014.3
20260504191530 75 90 6.0 15.0 0.00 0.00 0.00 39 1014.4
20260504190037 75 226 4.0 11.0 0.00 0.00 0.00 37 1014.7
20260504184534 74 80 6.0 13.0 0.00 0.00 0.00 38 1014.8
20260504183033 74 103 3.0 13.0 0.00 0.00 0.00 40 1014.9
20260504181530 74 150 8.0 14.0 0.00 0.00 0.00 39 1015.1
20260504180028 73 169 5.0 12.0 0.00 0.00 0.00 41 1015.2
20260504174530 73 236 3.0 12.0 0.00 0.00 0.00 42 1015.2
20260504173029 73 203 6.0 10.0 0.00 0.00 0.00 42 1015.6
20260504171529 73 173 4.0 10.0 0.00 0.00 0.00 43 1015.7
20260504081533 37 0 0.0 0.0 0.00 0.00 0.00 94 1017.0